Flag for Germany

Past Weather in Berlin, Germany — Yesterday and Last 2 Weeks

Now
75 °F

Scattered clouds.


Feels Like: 78 °F
Forecast: 72 / 62 °F
Wind: 10 mph from West

Location: Berlin-Tegel

Current Time: Jul 2, 2020 at 5:34:20 pm

Latest Report: Jul 2, 2020 at 4:50 pm


Visibility: N/A

Pressure: 29.80 "Hg

Humidity: 47%

Dew Point: 54 °F

Location of BerlinLocation

Past Weather in Berlin — Graph

°F

Berlin Temperature Yesterday

Maximum temperature yesterday: 73 °F (at 5:20 pm)
Minimum temperature yesterday: 64 °F (at 10:20 pm)
Average temperature yesterday: 68 °F

High & Low Weather Summary for the Past Weeks

 TemperatureHumidityPressure
High90 °F (Jun 27, 5:50 pm)100% (Jun 20, 1:50 am)30.27 "Hg (Jun 20, 1:50 am)
Low54 °F (Jun 22, 3:20 am)29% (Jun 23, 3:20 pm)29.68 "Hg (Jul 1, 7:20 pm)
Average69 °F64%29.96 "Hg
* Reported Jun 17 4:20 pm — Jul 2 4:20 pm, Berlin. Weather by CustomWeather, © 2020

Note: Actual official high and low records may vary slightly from our data, if they occured in-between our weather recording intervals... More about our weather records

Berlin Weather History for the Previous 24 Hours

Scroll right to see more
 ConditionsComfort  
Time TempWeatherWind HumidityBarometerVisibility
4:20 pm
Thu, Jul 2
75 °FScattered clouds.10 mph47%29.80 "HgN/A
3:50 pm75 °FScattered clouds.12 mph50%29.80 "HgN/A
3:20 pm75 °FScattered clouds.12 mph47%29.80 "HgN/A
2:50 pm75 °FScattered clouds.14 mph47%29.80 "HgN/A
2:20 pm73 °FScattered clouds.9 mph50%29.83 "HgN/A
1:50 pm72 °FScattered clouds.6 mph53%29.83 "HgN/A
1:20 pm72 °FPassing clouds.9 mph53%29.83 "HgN/A
12:50 pm70 °FPassing clouds.9 mph57%29.83 "HgN/A
12:20 pm70 °FPartly sunny.9 mph57%29.83 "HgN/A
11:50 am70 °FScattered clouds.8 mph57%29.83 "HgN/A
11:20 am70 °FScattered clouds.10 mph57%29.83 "HgN/A
10:50 am72 °FScattered clouds.9 mph53%29.83 "HgN/A
10:20 am68 °FPassing clouds.9 mph60%29.83 "HgN/A
9:50 am68 °FScattered clouds.10 mph60%29.83 "HgN/A
9:20 am68 °FPassing clouds.12 mph64%29.80 "HgN/A
8:50 am66 °FPassing clouds.8 mph68%29.80 "HgN/A
8:20 am66 °FPassing clouds.12 mph68%29.80 "HgN/A
7:50 am64 °FPassing clouds.10 mph78%29.80 "HgN/A
7:20 am64 °FPassing clouds.8 mph78%29.80 "HgN/A
6:50 am64 °FPassing clouds.8 mph83%29.80 "HgN/A
6:20 am63 °FLight rain. Scattered clouds.7 mph88%29.77 "HgN/A
5:50 am61 °FPassing clouds.6 mph94%29.77 "HgN/A
5:20 am61 °FPassing clouds.8 mph94%29.77 "HgN/A
4:50 am59 °FPassing clouds.6 mph94%29.77 "HgN/A
4:20 am59 °FClear.8 mph94%29.77 "Hg10 mi
3:50 am61 °FPassing clouds.8 mph94%29.74 "HgN/A
3:20 am61 °FClear.8 mph94%29.74 "Hg10 mi
2:50 am61 °FClear.8 mph94%29.74 "Hg10 mi
2:20 am61 °FClear.7 mph88%29.74 "Hg10 mi
1:50 am63 °FClear.7 mph88%29.74 "Hg10 mi
1:20 am63 °FClear.8 mph88%29.74 "Hg10 mi
12:50 am64 °FClear.12 mph83%29.74 "Hg10 mi
12:20 am64 °FPassing clouds.8 mph83%29.74 "HgN/A
11:50 pm
Wed, Jul 1
64 °FClear.5 mph88%29.71 "Hg10 mi
11:20 pm64 °FClear.6 mph88%29.71 "Hg10 mi
10:50 pm66 °FPassing clouds.7 mph83%29.74 "HgN/A
10:20 pm64 °FPassing clouds.3 mph88%29.71 "HgN/A
9:50 pm66 °FPassing clouds.9 mph83%29.71 "HgN/A
9:20 pm66 °FPassing clouds.5 mph88%29.71 "HgN/A
8:50 pm68 °FSprinkles. Passing clouds.3 mph83%29.71 "HgN/A
8:20 pm72 °FSprinkles. Passing clouds.3 mph69%29.68 "HgN/A
7:50 pm72 °FPassing clouds.2 mph69%29.71 "HgN/A
7:20 pm73 °FPassing clouds.5 mph61%29.68 "HgN/A
6:50 pm73 °FPassing clouds.7 mph61%29.71 "HgN/A
6:20 pm73 °FPassing clouds.6 mph61%29.71 "HgN/A
5:50 pm73 °FScattered clouds.9 mph61%29.71 "HgN/A
5:20 pm73 °FPassing clouds.8 mph65%29.71 "HgN/A
Weather by CustomWeather, © 2020

See weather overview